Location: Salamanca
(40.9670°N, 5.6500°W)
Time: 19:26:38
(UTC+01:00)

ISS - Visible Passes

Search period start: 25 March 2019 00:00
Search period end: 04 April 2019 01:00
Orbit: 408 x 411 km, 51.6° (Epoch: 25 March)

Date Brightness Start Highest point End Pass type
(mag) Time Alt. Az. Time Alt. Az. Time Alt. Az.
25 Mar -2.9 20:13:41 10° WSW 20:16:53 48° NNW 20:20:06 10° NE visible
25 Mar -1.1 21:52:01 10° NW 21:54:05 15° NNW 21:54:25 15° N visible
26 Mar -1.3 21:00:46 10° WNW 21:03:13 19° NNW 21:05:41 10° NNE visible
27 Mar -1.7 20:09:35 10° W 20:12:24 25° NNW 20:15:12 10° NE visible
27 Mar -1.0 21:48:11 10° NNW 21:49:52 13° N 21:50:19 13° N visible
28 Mar -1.1 20:57:02 10° NW 20:58:55 14° N 21:00:49 10° NNE visible
28 Mar -0.3 22:34:30 10° NNW 22:34:31 10° NNW 22:34:31 10° NNW visible
29 Mar -1.2 21:43:51 10° NNW 21:45:37 14° N 21:45:54 13° NNE visible
30 Mar -1.1 20:53:00 10° NNW 20:54:39 13° N 20:56:17 10° NNE visible
30 Mar -0.5 22:29:32 10° NNW 22:30:01 13° NNW 22:30:01 13° NNW visible
31 Mar -1.5 22:39:00 10° NNW 22:41:16 17° NNE 22:41:21 17° NNE visible
01 Apr -1.3 21:48:24 10° NNW 21:50:18 14° N 21:52:13 10° NE visible
01 Apr -0.9 23:24:30 10° NW 23:25:25 17° NNW 23:25:25 17° NNW visible
02 Apr -2.2 22:33:56 10° NW 22:36:44 25° NNE 22:36:44 25° NNE visible
03 Apr -1.8 21:43:24 10° NNW 21:45:52 19° NNE 21:48:04 11° ENE visible
03 Apr -1.2 23:19:31 10° NW 23:20:50 22° NW 23:20:50 22° NW visible
